Location: Newark
(48.2308°N, 120.8549°W)
Time: 05:55:22
(UTC+00:00)

FENGYUN 1C DEB - Pass Details

Date: 05 February 2022
Orbit: 822 x 948 km, 99.2° (Epoch: 25 May)

Event Time Altitude Azimuth Distance (km) Brightness Sun altitude
Rises 01:29:21 0° 111° (ESE) 3,613 ? -4.1°
Reaches altitude 10° 01:32:34 10° 94° (E) 2,661 ? -4.6°
Maximum altitude 01:36:25 18° 54° (NE) 2,116 ? -5.2°
Drops below altitude 10° 01:40:13 10° 13° (NNE) 2,630 ? -5.8°
Sets 01:43:22 0° 356° (N) 3,554 ? -6.3°
